User: anonymous   Login
Location: Caltech
(34.1382°N, 118.1253°W)
Time: 06:08:17
(UTC-07:00)
Language:

SO-50 - Orbit

View from above orbital plane
View from above orbital plane
View from above satellite
View from above satellite

Ground track
Ground track

The orbit data is extracted from the following two-line orbital elements,

1 27607U 02058C   16204.82389816  .00000089  00000-0  33511-4 0  9999
2 27607  64.5552  51.9622 0064370 209.2139 150.5358 14.75180839730522
Epoch (UTC): 22 July 2016 19:46:24
Eccentricity: 0.0064370
inclination: 64.5552°
perigee height: 599 km
apogee height: 690 km
right ascension of ascending node: 51.9622°
argument of perigee: 209.2139°
revolutions per day: 14.75180839
mean anomaly at epoch: 150.5358°
orbit number at epoch: 73052

The dashed part of the orbit path shows where the satellite is in the earth's shadow,  

DLR